Theta_e
346 346 344 339 338 337 336 337 336 336 336 334 334 333 332 333 332 333 332 331 330 329 327 328 327 326 324 323 323 322 322 322 323 324 326 327 327 328 328 329 329 330 331 332 333 334 334 334 334 335 335 336 336 336 336 336 337 337 336 336 336 337 336
346 345 343 339 338 338 336 336 336 336 335 332 332 331 332 333 333 333 331 330 330 329 329 330 329 327 325 324 323 323 323 324 325 325 326 325 325 326 327 328 328 328 329 329 330 331 331 331 332 332 333 333 334 334 334 334 335 335 335 335 335 335 334
346 344 342 339 338 337 335 336 336 335 333 330 329 329 331 332 332 331 331 330 330 330 331 331 329 327 326 324 324 324 325 325 326 325 324 324 324 325 326 326 326 327 328 329 329 329 330 330 330 330 330 330 330 331 331 331 332 331 332 332 332 332 332
345 344 340 338 338 336 335 336 335 334 330 328 328 329 330 331 331 330 331 331 331 331 332 331 329 328 326 325 324 325 326 326 325 324 324 324 324 325 326 326 326 326 328 329 329 329 329 329 329 329 329 329 329 329 329 330 329 329 330 330 330 330 330
344 343 340 339 339 336 335 335 334 331 327 327 328 328 329 330 330 331 331 332 332 332 332 331 329 327 325 324 324 325 326 326 324 324 323 323 324 325 326 326 326 327 327 327 328 328 328 328 328 328 329 329 329 329 330 330 330 330 330 330 331 331 330
344 342 340 339 338 335 335 334 332 329 326 328 329 328 330 329 330 332 332 332 333 332 332 331 329 327 325 325 325 325 326 326 324 324 323 324 324 325 326 326 326 326 326 326 326 327 327 327 328 328 329 329 329 329 329 329 329 329 329 329 330 330 331
343 341 338 339 337 335 334 332 330 328 327 329 329 329 330 330 331 333 333 333 333 332 333 331 328 325 324 325 325 326 326 326 324 323 323 324 325 325 325 326 326 326 326 326 326 326 326 327 327 328 327 327 326 325 325 326 327 327 328 328 328 329 330
342 340 338 338 337 335 333 331 328 328 328 329 330 330 331 331 332 332 333 333 333 333 333 331 326 323 323 324 325 326 326 325 324 323 323 324 325 326 326 327 327 326 326 326 326 326 326 326 326 326 326 325 325 324 324 326 327 328 328 329 330 330 330
340 339 338 337 337 335 332 330 328 328 330 330 330 332 331 332 332 331 332 333 333 333 332 329 324 321 322 324 325 326 325 324 324 323 324 326 326 326 326 327 327 327 327 327 327 327 326 325 325 324 324 324 324 324 325 327 327 327 328 330 330 331 331
339 337 339 337 336 335 332 330 329 329 331 331 331 332 332 332 331 329 330 331 332 332 329 326 322 321 322 324 325 326 324 323 323 323 324 326 327 326 326 327 327 328 327 327 327 326 325 325 325 324 323 323 323 325 326 327 327 327 330 331 332 332 332
338 337 338 337 334 334 332 330 330 330 331 332 331 332 331 330 328 326 327 327 328 328 325 323 321 320 322 324 324 324 323 322 323 323 324 325 326 326 326 327 326 326 326 326 327 326 325 326 325 324 323 323 324 326 327 327 325 325 328 330 330 331 332
338 338 338 337 335 333 332 330 330 331 332 332 332 331 330 328 326 324 324 323 324 324 323 321 320 320 323 324 323 323 322 322 323 323 324 324 325 325 325 325 325 325 325 326 326 326 325 326 325 324 324 323 325 327 327 326 325 324 325 325 326 327 329
338 338 337 336 335 333 332 331 331 332 332 332 331 330 328 327 326 325 324 322 322 322 322 320 320 321 323 323 323 322 322 321 322 323 323 323 323 323 323 322 323 325 326 326 327 326 326 326 325 325 324 324 326 327 327 327 325 324 325 325 325 325 326
337 337 336 335 334 333 332 331 332 332 332 332 330 328 327 326 326 326 324 322 321 321 321 320 320 322 323 322 322 322 321 321 322 322 322 322 322 322 321 321 322 324 326 326 326 326 325 325 325 326 325 325 326 327 327 327 325 325 325 324 325 326 327
336 336 336 335 333 332 332 331 332 332 332 330 329 327 326 325 326 326 324 321 320 320 320 320 320 322 322 321 322 322 322 322 322 322 322 322 322 322 321 321 323 325 326 327 326 326 325 325 326 326 326 326 326 326 326 327 326 325 325 324 324 326 327
336 336 335 335 333 331 331 331 332 332 331 330 328 327 325 325 327 327 324 321 320 320 320 320 320 321 321 321 322 323 322 322 323 322 322 322 322 323 324 324 325 326 326 327 327 327 326 325 325 326 326 326 326 326 326 326 326 325 324 323 324 324 326
335 335 335 334 332 331 331 331 332 332 331 329 327 327 326 327 327 325 323 321 320 320 320 320 320 320 321 321 321 322 323 324 323 323 322 322 323 325 326 326 327 327 326 327 327 326 326 325 325 325 326 326 326 326 326 326 326 325 324 323 323 324 325
335 335 334 332 332 332 330 330 331 330 329 327 326 327 327 327 327 324 322 320 320 321 321 320 321 321 322 322 322 323 324 324 324 322 321 322 323 324 325 325 327 327 327 327 326 325 325 325 324 325 326 326 326 326 326 326 326 325 323 323 323 324 326
334 333 332 331 331 332 330 329 329 328 327 326 326 327 327 326 324 323 322 321 322 323 323 323 322 322 323 324 325 325 326 325 325 323 322 322 322 322 323 323 325 326 326 326 325 324 324 324 324 325 325 326 326 325 325 326 326 325 323 322 323 324 325
332 331 332 331 331 330 329 329 328 327 327 326 326 327 327 324 323 323 323 322 323 324 324 325 325 324 324 325 326 327 327 326 326 323 321 320 319 319 320 321 323 324 325 324 324 324 325 324 325 325 325 326 325 324 325 326 325 324 322 322 323 324 325
332 332 332 332 331 331 329 328 327 327 326 325 326 327 325 322 323 324 323 322 323 324 323 325 326 326 326 326 326 327 328 327 326 322 320 319 318 319 320 321 322 323 324 323 323 324 324 324 325 324 324 324 323 323 325 326 325 324 322 322 322 323 324
332 332 332 332 331 330 330 328 327 327 326 325 327 326 324 322 324 324 324 324 324 323 323 324 326 327 327 327 327 328 328 326 324 321 320 319 318 319 321 321 322 323 324 323 324 324 324 324 325 323 322 322 322 323 325 324 323 323 323 323 322 323 324
332 331 331 331 330 331 330 328 328 327 326 326 328 326 324 324 325 325 325 325 324 324 324 324 325 328 329 328 327 328 327 325 323 321 319 319 319 320 320 320 322 323 324 323 324 324 324 324 324 323 322 323 321 322 325 323 321 323 324 323 322 322 323
332 332 331 331 331 331 330 328 328 328 327 327 328 326 324 326 327 326 326 326 325 325 325 324 324 327 329 328 327 326 325 324 323 321 319 319 319 319 320 321 323 323 323 323 323 323 324 324 323 322 323 323 320 321 324 324 322 323 323 323 323 323 322
331 331 331 331 331 330 329 328 328 327 328 327 327 325 325 327 327 327 327 326 325 325 325 325 324 325 326 327 327 325 322 323 323 320 319 319 319 319 319 322 323 323 322 322 321 322 324 323 322 322 323 323 321 320 324 325 323 323 322 321 322 324 323
331 331 330 330 330 329 329 328 328 328 328 327 327 326 326 328 328 328 327 326 325 325 325 324 323 323 324 325 326 324 322 321 321 320 319 320 320 319 319 321 322 321 320 320 319 321 322 322 322 322 323 323 321 319 322 325 325 325 324 321 320 322 324
330 331 329 329 329 329 329 329 329 329 328 327 327 326 327 328 328 328 327 326 325 325 325 324 323 323 323 324 324 323 322 322 323 322 321 320 320 319 318 320 321 320 319 319 320 320 321 321 322 322 323 323 321 317 320 325 326 326 326 325 321 320 320
331 330 329 330 330 330 331 331 330 329 328 328 327 327 328 329 328 328 328 326 326 325 325 324 323 323 324 324 323 323 323 325 326 323 321 321 321 320 319 319 320 319 319 320 320 320 321 321 322 322 322 323 322 318 318 324 326 326 326 326 324 322 320
330 330 330 330 329 329 331 330 330 330 329 328 327 327 328 328 328 328 327 327 326 325 325 324 323 323 324 324 324 324 324 326 325 322 321 321 321 320 320 319 319 320 320 320 320 320 321 320 321 322 322 322 323 320 317 320 324 324 323 322 323 323 322
329 329 329 328 328 329 330 329 329 330 329 328 327 327 328 329 328 327 327 327 326 325 325 324 324 324 324 324 324 324 325 326 325 322 321 321 320 320 320 320 319 320 320 321 320 321 321 320 320 321 321 321 323 323 319 318 320 321 320 319 319 320 321
327 328 328 327 328 329 329 329 330 330 329 329 328 328 328 328 327 327 327 326 326 326 325 324 324 325 324 324 324 324 324 325 324 321 321 321 320 321 320 320 320 320 320 320 321 321 321 321 321 320 321 321 322 323 322 319 318 319 319 319 319 318 319
327 327 327 327 327 328 328 329 330 330 330 329 327 328 328 327 326 327 326 326 326 326 325 324 323 324 324 324 323 323 324 325 323 321 321 321 321 321 321 321 321 321 321 321 321 321 321 322 321 321 321 321 321 323 323 322 321 320 319 319 320 320 319
325 325 326 326 326 327 328 328 329 330 330 328 327 327 326 324 325 326 326 326 327 326 325 324 323 324 323 323 323 322 324 324 323 321 321 321 321 321 321 321 321 321 321 321 321 321 322 322 322 321 321 321 321 321 322 323 322 322 321 320 321 320 319
324 324 325 326 326 326 327 327 328 329 328 327 327 325 323 323 324 324 325 326 326 326 325 324 324 324 323 323 322 322 324 324 322 321 321 321 321 321 320 321 321 321 321 321 321 322 322 322 322 322 321 321 321 320 321 323 323 323 322 321 321 321 320
324 324 324 325 325 326 326 327 327 327 327 326 325 323 323 323 324 324 326 326 325 325 324 324 324 323 323 322 322 323 324 323 322 321 321 321 321 321 321 321 321 321 321 321 321 322 322 322 322 322 321 321 321 320 320 322 323 323 323 322 321 321 320
323 324 325 325 325 325 325 325 326 326 325 324 323 323 323 324 324 325 326 325 324 323 323 323 323 323 322 322 323 324 324 323 322 321 321 321 321 321 321 321 321 321 321 321 322 322 322 322 322 322 321 320 320 320 320 321 322 323 323 322 322 321 321
323 324 324 324 325 325 324 324 324 324 324 323 323 323 324 325 325 326 325 324 324 323 323 323 322 322 322 322 323 324 324 323 323 322 321 321 321 321 321 321 321 321 321 321 322 322 322 322 322 321 320 320 320 320 320 320 321 322 323 322 322 321 321
323 324 324 324 325 324 324 323 323 323 322 322 322 323 324 326 326 326 325 324 323 323 323 322 321 321 322 322 322 323 323 322 322 322 321 321 321 321 321 321 321 322 322 322 321 322 322 322 321 321 320 320 320 320 320 320 320 321 322 323 322 322 322
Wind_Speed
30 29 27 25 24 23 20 17 15 13 10 9 11 11 11 11 11 11 11 12 14 15 16 16 17 17 17 16 16 15 15 15 14 14 14 15 16 18 19 19 18 17 16 16 15 14 14 15 16 16 16 16 17 18 19 19 20 21 22 24 25 27 29
32 31 28 27 25 23 19 16 15 13 10 11 12 11 11 11 11 11 11 13 15 15 15 16 17 17 16 16 15 14 13 13 12 13 13 14 16 17 19 20 20 19 18 17 17 16 16 16 17 18 18 19 19 21 21 22 23 24 26 27 29 30 32
33 32 30 28 27 23 18 17 16 13 10 11 12 10 10 10 11 11 12 14 15 14 14 15 17 17 16 16 15 13 12 12 13 13 14 15 15 17 18 19 19 20 19 18 17 17 17 17 18 19 20 20 21 22 24 25 27 28 30 32 33 35 36
35 34 32 29 27 22 18 17 16 12 11 12 10 9 9 10 11 11 13 14 13 13 14 15 16 16 16 16 15 13 12 13 14 15 15 16 16 16 17 17 18 18 18 17 16 16 17 18 18 19 19 20 21 22 23 25 27 29 31 33 35 37 39
36 34 32 31 27 22 19 18 16 12 11 10 7 6 8 9 11 11 12 12 12 13 13 14 15 15 15 16 15 14 13 14 15 16 16 16 16 16 16 17 17 16 15 15 14 14 14 15 16 17 17 18 19 21 22 23 25 27 29 30 32 35 37
37 35 34 32 28 23 20 19 16 12 11 9 6 6 8 10 11 11 11 12 12 13 13 14 15 15 14 15 15 14 14 14 15 17 18 17 17 17 17 16 16 15 14 14 15 15 15 14 14 14 14 16 17 19 20 22 24 25 27 29 30 32 34
37 36 35 32 28 23 21 19 15 12 11 10 7 8 10 10 11 11 12 12 12 13 13 14 14 14 14 14 14 14 14 14 15 16 18 18 18 19 17 15 14 14 14 15 15 15 14 14 13 13 14 15 16 18 19 20 22 23 25 27 29 30 32
37 37 35 31 27 23 21 18 14 13 13 11 9 10 10 11 11 12 12 12 12 13 13 14 14 14 14 13 13 14 14 14 14 16 17 18 18 17 15 13 13 13 14 15 14 13 12 12 13 15 16 17 18 19 19 20 21 23 25 26 27 28 29
34 35 33 29 26 24 20 17 14 14 14 11 10 10 10 10 11 11 11 12 13 13 13 14 14 13 13 12 12 13 13 13 13 15 16 16 16 15 14 12 12 13 14 15 13 11 11 12 14 15 17 17 18 18 19 21 23 25 26 25 25 26 27
32 32 31 28 26 24 20 17 15 15 14 12 10 10 10 10 10 11 11 12 13 14 14 14 13 12 12 11 11 12 12 12 12 14 15 15 15 15 15 14 13 14 15 16 14 11 11 12 14 16 17 17 17 18 19 21 24 25 24 23 24 25 25
30 30 30 29 27 25 21 18 16 16 14 11 10 10 9 9 9 10 11 12 13 13 13 13 13 12 11 10 10 10 10 11 12 13 14 15 16 16 16 16 16 16 17 17 15 13 12 13 15 17 17 17 16 17 19 21 23 24 23 22 23 23 23
29 31 31 30 28 25 21 18 17 16 13 11 10 9 9 8 8 9 10 11 12 13 12 12 12 12 10 9 9 9 9 11 12 13 14 16 17 18 18 17 17 17 17 17 16 14 14 14 15 16 17 16 16 17 19 21 23 24 24 24 25 25 23
30 31 31 31 28 24 21 19 18 16 13 11 10 8 8 7 7 10 11 11 12 12 12 12 12 10 9 9 9 9 9 10 11 12 14 16 17 18 19 19 19 18 17 17 16 15 14 14 15 16 17 16 16 17 18 20 23 24 24 26 26 26 26
29 30 31 30 27 24 21 20 19 17 14 12 9 8 7 7 8 11 11 11 11 12 12 11 11 9 8 9 9 9 9 10 11 13 14 16 17 18 19 19 19 18 17 16 16 15 14 14 15 17 17 15 16 17 18 20 23 24 25 28 29 27 26
30 31 32 30 27 24 22 20 20 17 14 12 10 8 8 8 10 11 11 10 11 12 11 11 10 8 9 9 9 9 10 10 12 13 14 16 17 18 19 19 18 17 16 16 16 15 15 15 16 17 16 16 17 18 19 21 24 25 25 28 29 28 29
32 32 32 31 28 25 22 21 19 16 15 14 10 8 9 11 11 11 10 10 11 11 11 10 10 9 9 9 8 9 10 11 12 13 15 16 16 17 17 17 17 17 16 16 16 16 17 17 17 17 17 18 18 20 21 22 23 24 25 27 28 29 31
32 32 32 30 28 25 22 21 18 17 17 14 10 10 12 12 12 11 10 10 10 10 10 11 11 11 10 9 8 8 10 11 13 15 16 15 15 15 16 17 18 18 18 17 17 17 18 18 18 18 19 20 20 22 24 24 23 24 24 25 27 29 31
33 33 31 30 28 25 22 20 19 18 16 11 10 12 13 12 12 11 9 8 9 9 10 11 12 12 11 10 8 9 10 12 14 15 15 14 14 16 17 18 18 19 19 19 17 18 18 18 19 19 19 21 21 22 24 25 24 23 23 24 27 28 31
33 31 31 30 28 25 21 20 19 17 12 10 12 13 12 12 11 10 8 7 8 8 9 11 12 13 13 11 10 11 11 13 14 15 14 15 16 17 18 19 19 19 20 19 17 17 17 18 19 19 19 20 21 22 23 24 24 23 22 24 27 27 30
31 30 30 29 27 22 20 20 19 15 11 12 14 13 12 11 10 9 7 7 8 9 9 10 11 13 13 12 12 12 12 14 15 15 15 16 17 18 18 18 19 19 19 18 16 16 17 17 18 18 18 19 20 21 22 23 24 23 22 23 26 28 29
30 29 29 28 25 21 20 20 18 14 13 14 15 14 12 10 8 8 8 8 8 9 9 10 12 13 14 13 13 13 14 15 16 16 17 18 19 18 17 17 18 18 17 17 16 16 16 16 17 18 18 19 20 21 21 20 22 22 21 23 26 28 29
28 27 26 24 22 20 19 18 16 15 15 15 15 15 12 8 7 8 9 9 9 9 9 11 14 14 14 13 13 13 14 15 16 16 17 19 19 17 16 17 17 16 16 16 16 16 16 16 17 19 20 19 20 20 19 17 19 21 21 22 25 27 29
24 21 20 19 19 17 15 14 14 15 15 15 17 16 12 9 8 10 10 10 10 10 11 13 15 15 14 13 12 12 13 13 14 16 17 18 18 17 17 17 16 16 16 16 17 17 16 17 18 20 21 20 20 20 17 15 16 19 20 21 23 26 29
21 18 17 17 17 16 15 15 15 15 16 18 19 18 14 11 11 11 12 11 11 11 12 14 15 16 15 14 12 12 12 13 14 15 16 17 18 17 16 16 15 15 15 16 18 17 16 17 18 18 20 20 20 19 15 14 15 17 19 21 22 24 27
19 17 16 15 15 14 15 15 16 18 19 21 21 19 16 14 13 14 14 12 11 12 14 14 15 14 13 12 11 11 12 12 13 13 14 16 17 17 17 16 14 15 15 16 18 17 16 17 17 17 18 19 19 18 14 12 14 16 18 21 22 23 24
17 16 15 14 14 14 15 16 18 21 23 23 21 18 17 15 14 16 16 13 11 13 14 13 13 12 12 12 11 11 11 12 12 13 14 16 17 17 16 15 14 15 16 17 17 17 17 17 17 17 18 18 18 17 14 12 13 15 17 20 22 23 23
16 15 14 14 15 16 17 19 21 23 24 23 20 18 18 17 16 17 17 14 13 14 13 12 12 13 13 13 12 11 11 11 12 14 15 16 17 16 15 15 15 16 16 16 16 17 17 17 17 17 17 16 16 16 14 12 12 14 16 18 20 21 22
15 16 16 16 17 18 19 20 22 24 25 23 21 19 18 18 18 19 18 16 15 14 12 12 13 14 13 14 13 12 12 12 13 14 15 15 15 15 14 14 13 13 13 13 14 15 15 16 16 17 16 15 15 14 14 12 12 13 15 17 18 19 20
15 15 16 17 17 19 20 21 23 25 25 24 21 19 19 19 20 21 20 19 16 14 13 14 14 14 13 13 13 13 13 13 14 14 14 13 12 12 12 12 11 11 11 12 14 15 15 15 16 17 17 16 14 13 12 11 10 12 14 15 16 17 17
13 15 16 16 17 18 20 22 23 25 26 24 20 19 20 20 21 22 21 19 16 14 14 15 15 15 15 15 15 15 14 14 14 14 13 11 9 9 10 10 10 10 11 13 14 15 15 15 16 17 17 17 15 13 11 10 9 10 12 13 14 15 15
13 14 15 16 18 19 22 23 24 26 27 23 20 19 20 20 21 22 22 18 15 15 15 15 17 18 18 17 17 16 16 15 14 13 12 10 8 7 8 8 8 9 11 13 14 15 15 15 15 16 17 17 16 14 12 11 10 10 11 12 14 14 14
13 14 15 17 18 20 22 23 25 27 26 23 19 18 18 18 20 22 21 17 15 15 16 17 19 20 18 17 16 15 16 16 14 12 11 10 8 7 6 6 7 9 12 14 15 15 15 15 15 15 15 16 16 14 12 11 11 11 11 12 13 14 13
12 12 14 16 18 20 22 23 24 26 25 21 18 17 16 17 19 20 19 16 15 15 17 18 19 19 17 16 15 15 15 16 14 11 10 10 9 7 6 6 8 11 13 15 15 15 15 15 15 15 14 15 16 15 12 11 11 11 12 12 13 14 13
10 12 15 17 19 21 23 23 23 23 22 18 15 14 15 17 17 18 17 15 15 16 17 18 18 17 17 16 15 16 15 15 14 12 10 10 10 8 8 9 11 12 14 14 15 15 16 16 16 15 14 15 15 15 13 12 11 12 12 13 14 14 14
10 12 14 16 18 19 21 21 22 21 19 16 14 14 15 16 16 17 17 16 16 16 16 16 15 16 16 15 14 14 14 14 14 13 12 10 10 10 10 12 13 13 14 14 14 14 15 16 16 15 15 15 15 14 13 12 11 11 12 13 13 15 15
12 13 13 13 13 14 16 17 18 18 16 15 15 15 16 16 17 18 18 18 16 15 15 15 14 14 14 14 13 13 14 14 15 15 14 12 10 11 12 14 14 13 13 14 14 13 14 15 15 14 14 14 14 14 13 12 11 11 11 12 13 14 14
13 14 13 13 12 12 13 15 16 16 16 16 16 17 17 17 18 18 18 17 16 16 16 16 15 15 14 14 13 14 15 16 17 16 15 13 11 12 14 14 13 12 12 13 14 14 14 13 13 13 12 13 13 13 13 13 12 10 10 11 12 12 13
12 12 12 13 13 13 13 14 15 15 16 16 17 17 17 17 17 17 17 16 16 17 18 18 18 17 16 15 15 15 16 17 17 16 15 13 12 13 15 14 12 11 11 12 13 14 13 12 12 12 12 12 12 13 13 13 12 11 10 10 10 10 12
Wind_Direction
199 201 200 199 202 205 206 206 207 210 220 239 251 257 259 257 259 266 275 287 296 297 298 304 311 314 314 314 315 313 313 315 318 322 323 322 322 321 320 320 321 320 316 313 309 300 292 286 282 276 270 267 268 272 273 271 269 266 262 261 262 263 264
203 204 204 203 206 208 206 205 208 213 227 245 254 258 256 255 262 270 281 292 295 293 295 303 309 315 318 321 321 319 319 320 321 322 321 320 319 317 317 319 319 318 315 311 307 302 297 292 288 285 281 276 273 273 274 274 274 272 270 268 267 266 266
205 206 205 205 208 208 203 205 211 216 233 250 256 258 256 260 268 276 286 292 291 290 294 300 307 315 320 323 323 322 322 322 323 325 324 322 321 317 316 317 319 320 318 313 307 303 301 298 295 293 289 287 283 279 277 276 275 276 276 274 273 271 269
205 207 206 207 208 205 202 207 212 219 239 251 254 257 260 265 270 276 285 288 288 289 292 297 305 314 319 321 323 320 318 321 325 327 327 325 323 318 316 317 320 321 322 320 314 306 302 300 299 298 295 292 290 286 284 280 278 277 277 276 275 273 271
206 208 207 207 206 202 201 207 212 220 239 244 244 257 261 263 267 274 282 285 285 286 288 296 305 314 318 319 320 317 316 321 326 327 327 325 323 320 319 320 320 322 324 325 322 315 309 305 302 299 297 295 292 290 288 286 284 281 280 279 277 276 274
205 207 207 206 203 199 200 206 211 220 233 234 231 247 253 256 264 272 279 281 282 283 286 296 307 314 316 315 316 315 316 321 324 325 324 324 323 322 322 323 322 322 324 325 322 319 317 314 308 302 298 297 296 295 293 291 290 288 286 284 282 280 277
204 206 206 203 200 198 199 204 211 219 227 223 222 237 246 254 264 271 276 279 280 280 285 296 307 314 315 313 314 314 316 320 321 322 323 324 323 322 321 320 320 320 321 322 320 318 318 316 311 307 305 304 305 305 303 300 298 296 294 291 286 282 279
205 206 204 201 199 197 199 204 209 217 220 218 222 234 244 255 266 272 275 278 279 279 286 299 310 316 315 313 313 314 315 317 318 320 323 326 327 327 324 320 319 319 319 321 320 315 313 312 309 307 307 309 311 313 314 312 310 308 305 300 293 285 279
206 206 203 200 198 197 201 205 209 216 218 218 224 234 244 259 271 276 277 278 280 282 291 303 312 316 314 312 310 310 312 315 317 320 324 328 333 337 336 329 324 321 320 322 321 313 308 307 306 305 305 308 313 317 320 320 318 317 313 307 301 293 285
206 204 201 198 196 199 203 205 210 216 217 218 225 236 248 264 278 283 283 282 283 288 298 306 312 315 311 308 305 303 307 312 315 320 326 330 336 342 345 341 333 328 323 320 316 310 307 308 310 309 307 309 315 320 323 324 324 324 319 311 305 299 291
205 201 198 196 197 201 205 207 213 217 217 220 230 241 255 272 286 289 288 288 289 294 301 306 309 311 306 301 299 298 302 309 313 318 325 330 334 339 344 343 338 332 325 319 312 303 302 312 317 316 312 313 317 320 323 327 330 331 326 319 312 305 296
202 200 197 196 198 203 205 209 217 219 218 224 232 245 264 278 292 299 295 292 294 296 300 303 305 305 299 295 294 294 300 307 311 316 322 328 331 333 336 337 334 331 326 322 317 305 300 307 317 321 320 317 318 319 322 330 336 336 332 327 324 318 310
201 199 197 197 200 204 207 211 218 219 218 224 232 248 266 279 300 308 300 293 293 295 296 298 300 300 297 294 292 292 298 305 310 316 321 325 327 328 329 330 328 325 322 321 321 314 305 303 312 324 327 324 323 323 324 333 338 337 333 330 328 325 319
199 198 196 198 201 205 208 213 218 219 219 222 229 244 260 278 301 306 299 290 289 290 292 293 296 299 298 293 289 287 292 302 310 315 319 322 324 325 325 325 323 319 317 318 319 319 315 309 313 325 333 335 335 332 330 335 338 336 332 331 331 329 326
197 196 195 197 202 207 209 214 219 219 219 220 224 239 258 277 294 301 296 286 284 287 288 290 295 298 295 289 283 281 286 298 308 314 317 319 321 322 322 321 318 315 314 316 317 318 318 318 319 323 328 333 337 337 336 338 339 337 333 332 333 331 329
196 195 196 199 204 207 209 214 219 220 219 218 223 242 259 273 288 298 294 284 284 287 286 288 294 297 295 289 285 285 291 299 308 312 315 317 318 317 317 316 314 312 312 314 316 316 316 317 319 319 319 323 330 334 337 338 338 337 336 335 334 333 332
195 195 197 201 205 207 210 215 218 219 219 219 231 250 259 271 286 294 292 284 283 286 286 290 294 296 297 296 294 295 300 306 311 312 313 315 313 311 313 315 313 312 313 313 314 316 315 315 317 317 315 317 323 330 334 336 337 338 339 339 338 337 337
194 195 198 203 206 208 211 214 215 215 216 222 241 251 258 271 283 290 290 283 282 286 290 293 296 297 297 300 301 300 303 309 313 313 311 308 306 306 311 315 315 316 316 313 311 312 314 315 317 317 315 314 319 327 332 335 337 339 342 343 342 342 343
193 196 201 205 207 207 210 213 212 212 214 230 245 251 259 271 283 291 288 277 280 288 294 297 299 298 297 299 303 304 306 309 311 310 307 305 305 306 309 312 315 318 318 313 309 309 313 317 319 320 317 314 318 326 332 336 338 339 343 347 347 346 346
194 199 204 207 207 208 212 213 211 211 219 235 244 248 256 268 283 291 279 270 281 288 294 300 299 298 296 296 300 305 307 308 307 305 302 304 307 308 309 311 314 317 317 312 308 309 315 320 324 327 325 320 321 326 332 337 339 339 345 351 351 348 348
197 202 206 207 206 209 213 211 210 213 221 235 243 245 250 262 280 285 271 267 281 289 294 299 298 296 294 293 295 301 304 306 305 302 301 305 309 310 311 312 312 314 312 309 308 313 319 323 328 334 333 327 324 327 332 339 341 342 348 354 353 352 353
200 205 208 209 209 212 213 213 218 221 225 236 242 241 245 255 268 274 267 262 274 286 291 295 295 294 294 293 293 295 300 303 303 302 306 311 312 312 312 312 312 311 309 308 311 317 320 321 326 332 332 328 323 323 332 344 345 345 351 355 353 354 357
203 209 213 214 217 220 220 225 231 229 229 236 239 239 242 246 254 264 262 258 269 280 283 288 293 293 294 295 293 292 294 298 300 304 310 315 315 313 311 311 311 311 311 313 316 321 321 319 324 332 334 332 325 321 329 347 350 349 354 356 353 356 359
209 215 219 220 224 227 226 230 232 229 230 234 237 238 236 236 246 257 259 260 271 279 279 285 292 293 294 296 295 291 290 291 296 303 310 315 319 319 316 314 315 316 319 319 320 322 320 318 324 332 336 337 330 321 326 344 350 353 359 359 356 357 1
212 217 221 223 229 233 233 234 233 229 230 233 237 237 232 232 242 252 258 265 274 278 279 286 295 296 293 291 288 284 286 288 292 299 308 315 320 322 320 319 318 320 323 322 320 320 318 318 324 329 334 338 334 325 325 338 349 356 3 4 1 0 3
214 216 221 224 228 232 233 235 234 231 232 237 240 237 229 231 242 250 257 265 270 275 282 291 295 291 280 274 271 271 279 285 289 295 304 311 316 320 320 318 317 320 322 321 320 320 319 318 320 323 329 337 336 327 322 329 343 352 359 2 3 4 6
217 220 226 229 230 231 232 236 236 235 237 242 244 238 229 231 242 251 258 261 264 274 286 291 288 279 268 263 260 260 269 281 288 295 302 307 311 315 315 313 313 317 321 323 325 326 325 323 320 321 327 334 336 329 321 322 334 343 348 353 357 1 6
222 225 228 229 230 233 237 241 241 240 242 245 243 237 232 234 243 252 256 256 260 273 285 282 278 275 268 263 261 261 267 278 286 294 303 306 307 309 312 311 311 315 320 326 330 331 330 328 325 323 325 330 334 331 323 322 333 340 342 344 347 353 0
222 224 226 228 232 235 239 242 244 245 247 247 243 238 234 236 244 252 254 252 258 271 276 271 271 273 270 267 267 266 268 275 282 291 300 302 301 306 311 308 307 312 319 325 328 330 328 326 324 324 325 328 332 334 328 325 333 341 343 342 342 345 352
216 220 225 232 237 241 244 246 248 249 249 249 247 242 237 238 246 253 252 251 258 267 268 267 268 271 273 273 272 271 269 271 278 287 294 294 297 308 312 309 308 311 314 317 321 326 329 327 323 324 326 328 330 334 335 332 332 340 345 347 346 346 347
221 224 231 236 240 245 249 250 253 253 251 252 251 245 239 241 250 254 251 250 258 263 264 266 268 271 275 276 275 275 271 266 272 282 286 286 296 310 313 314 315 313 313 315 318 322 328 330 326 325 328 330 331 333 336 335 337 342 348 352 353 351 349
233 236 241 246 249 252 253 254 255 254 253 255 251 242 239 246 256 258 252 251 260 263 263 266 272 278 282 279 277 279 272 262 267 277 279 280 292 307 312 313 316 317 321 325 324 323 326 330 329 327 327 330 333 335 334 333 338 344 347 351 353 353 350
248 252 254 256 258 258 257 258 258 256 257 257 247 239 246 259 265 261 251 253 266 266 262 268 278 287 289 282 279 281 273 260 260 268 274 277 285 294 302 307 313 321 328 330 328 324 323 326 328 327 326 326 330 334 333 328 331 338 344 349 354 356 354
269 268 265 264 263 262 262 263 263 262 262 259 247 245 259 270 269 258 250 260 275 269 262 269 280 287 289 285 282 281 271 257 256 267 276 279 278 281 294 304 310 316 323 327 325 322 321 324 326 327 325 324 326 330 331 328 325 330 339 347 353 357 357
282 278 274 272 270 269 268 266 265 264 263 258 253 258 266 269 264 254 253 263 270 263 260 268 276 281 285 286 284 276 262 251 256 271 284 287 280 277 288 299 304 308 314 319 318 316 317 320 323 326 326 325 326 329 331 330 326 325 331 339 346 353 355
290 287 284 280 276 274 271 267 265 263 260 259 262 265 262 257 253 251 254 260 260 255 255 261 266 274 280 280 274 267 258 255 262 274 284 290 286 279 284 294 299 301 307 313 313 311 312 314 318 324 327 327 330 333 335 335 331 325 326 332 339 347 352
287 282 278 276 274 274 273 270 267 265 263 263 264 261 254 249 247 249 253 257 256 253 252 253 258 268 276 276 272 269 267 267 269 274 280 285 284 279 282 290 294 296 302 308 308 306 305 307 313 321 324 327 332 337 339 338 335 329 325 327 332 340 348
272 268 266 268 270 270 269 267 264 262 262 262 262 260 255 249 247 250 254 256 254 252 251 252 256 265 273 275 274 277 278 275 272 272 276 280 278 274 278 284 287 291 299 303 302 301 301 303 307 313 319 324 328 332 336 336 335 332 326 321 324 334 342